Marion, IN

9:33 PM EDT on March 29, 2017 (GMT -0400)
Marion Municipal

Weather History for KMZZ - June, 2013

Change the Weather History Date:

Sunday, June 2, 2013

  Actual Average (KMIE) Record (KMIE)
Temperature  
Mean Temperature 60 °F -  
Max Temperature 67 °F 77 °F 93 °F (1988)
Min Temperature 53 °F 56 °F 36 °F (1993)
Degree Days  
Heating Degree Days 4    
Growing Degree Days 10 (Base 50)    
Moisture  
Dew Point 56 °F    
Average Humidity 80    
Maximum Humidity 87    
Minimum Humidity 69    
Precipitation  
Precipitation 0.06 in - - ()
Sea Level Pressure  
Sea Level Pressure 29.90 in    
Wind  
Wind Speed 12 mph (West)    
Max Wind Speed 24 mph    
Max Gust Speed 33 mph    
Visibility 9 miles    
Events Rain    
Averages and records for this station are not official NWS values.
T = Trace of Precipitation, MM = Missing Value Source: NWS Daily Summary

Daily Weather History Graph

Daily Weather History Graph

Search for Another Location

Airport or City:

Trip Planner

Search our weather history database for the weather conditions in past years. The results will help you decide how hot, cold, wet, or windy it might be!

Date:

Astronomy

Jun. 02, 2013 Rise Set
Actual Time 6:13 AM EDT 9:07 PM EDT
Civil Twilight 5:41 AM EDT 9:40 PM EDT
Nautical Twilight 5:00 AM EDT 10:21 PM EDT
Astronomical Twilight 4:12 AM EDT 11:09 PM EDT
Moon 2:41 AM EDT (6/2) 3:36 PM EDT (6/2)
Length of Visible Light 15h 59m
Length of Day
14h 53m
Waning Crescent, 31% of the Moon is Illuminated
Jun 2
Waning Crescent
Jun 8
New
Jun 16
First Quarter
Jun 23
Full
Jun 30
Last Quarter

Hourly Weather History & Observations

Time (EDT) Temp. Dew Point Humidity Pressure Visibility Wind Dir Wind Speed Gust Speed Precip Events Conditions
12:15 AM 67.1 °F 60.8 °F 80% 29.79 in 10.0 mi SW 15.0 mph 19.6 mph N/A   Mostly Cloudy
12:35 AM 67.1 °F 60.8 °F 80% 29.79 in 10.0 mi SW 15.0 mph 21.9 mph N/A   Mostly Cloudy
12:55 AM 66.7 °F 60.4 °F 80% 29.81 in 7.0 mi WSW 24.2 mph 33.4 mph 0.01 in Rain Light Rain
1:15 AM 62.8 °F 58.6 °F 86% 29.80 in 7.0 mi SW 13.8 mph 18.4 mph 0.02 in Rain Light Rain
1:35 AM 61.9 °F 58.1 °F 87% 29.80 in 10.0 mi SW 12.7 mph - 0.02 in   Overcast
1:55 AM 61.9 °F 57.9 °F 87% 29.80 in 10.0 mi WSW 13.8 mph - 0.02 in   Overcast
2:15 AM 61.9 °F 57.0 °F 84% 29.80 in 10.0 mi WSW 10.4 mph - N/A   Scattered Clouds
2:35 AM 61.9 °F 56.8 °F 84% 29.80 in 10.0 mi WSW 12.7 mph 18.4 mph N/A   Clear
2:55 AM 61.7 °F 57.0 °F 85% 29.80 in 10.0 mi WSW 13.8 mph - N/A   Clear
3:15 AM 61.7 °F 57.2 °F 85% 29.80 in 10.0 mi WSW 11.5 mph 18.4 mph N/A   Scattered Clouds
3:35 AM 61.7 °F 57.2 °F 85% 29.80 in 10.0 mi WSW 12.7 mph 18.4 mph N/A   Scattered Clouds
3:55 AM 61.7 °F 57.4 °F 86% 29.81 in 10.0 mi WSW 13.8 mph - N/A   Mostly Cloudy
4:15 AM 61.5 °F 57.2 °F 86% 29.81 in 10.0 mi WSW 12.7 mph - N/A   Scattered Clouds
4:35 AM 61.2 °F 57.2 °F 87% 29.82 in 7.0 mi WSW 12.7 mph - N/A   Clear
4:55 AM 61.0 °F 56.8 °F 86% 29.82 in 10.0 mi WSW 11.5 mph - N/A   Clear
5:15 AM 60.8 °F 56.7 °F 86% 29.82 in 10.0 mi WSW 10.4 mph - N/A   Clear
5:35 AM 60.4 °F 56.7 °F 87% 29.82 in 10.0 mi WSW 10.4 mph - N/A   Clear
5:55 AM 60.4 °F 56.5 °F 87% 29.83 in 10.0 mi WSW 12.7 mph 16.1 mph N/A   Clear
6:15 AM 60.4 °F 56.5 °F 87% 29.84 in 10.0 mi WSW 12.7 mph - N/A   Clear
6:35 AM 60.3 °F 56.3 °F 87% 29.84 in 10.0 mi WSW 10.4 mph - N/A   Clear
6:55 AM 60.3 °F 56.3 °F 87% 29.85 in 10.0 mi WSW 10.4 mph - N/A   Clear
7:15 AM 60.4 °F 56.5 °F 87% 29.86 in 10.0 mi WSW 12.7 mph - N/A   Clear
7:35 AM 61.0 °F 56.7 °F 86% 29.86 in 10.0 mi West 11.5 mph - N/A   Mostly Cloudy
7:55 AM 61.3 °F 57.0 °F 86% 29.86 in 10.0 mi West 12.7 mph - N/A   Overcast
8:15 AM 61.7 °F 57.2 °F 85% 29.87 in 7.0 mi West 11.5 mph - N/A   Overcast
8:35 AM 61.7 °F 57.2 °F 85% 29.88 in 10.0 mi West 13.8 mph - N/A   Overcast
8:55 AM 61.7 °F 57.2 °F 85% 29.89 in 10.0 mi West 15.0 mph 18.4 mph N/A   Overcast
9:15 AM 61.3 °F 57.0 °F 86% 29.88 in 7.0 mi West 13.8 mph - N/A   Overcast
9:35 AM 61.3 °F 57.0 °F 86% 29.89 in 7.0 mi West 12.7 mph - N/A   Overcast
9:55 AM 61.5 °F 57.2 °F 86% 29.88 in 7.0 mi West 11.5 mph - N/A   Overcast
10:15 AM 62.1 °F 57.4 °F 85% 29.89 in 10.0 mi West 12.7 mph - N/A   Overcast
10:35 AM 62.4 °F 57.6 °F 84% 29.89 in 7.0 mi West 13.8 mph - N/A   Overcast
10:55 AM 62.6 °F 57.4 °F 83% 29.89 in 10.0 mi West 11.5 mph - N/A   Overcast
11:15 AM 63.3 °F 57.6 °F 81% 29.90 in 7.0 mi West 10.4 mph - N/A   Overcast
11:35 AM 63.7 °F 57.7 °F 81% 29.91 in 10.0 mi WNW 15.0 mph - N/A   Overcast
11:55 AM 63.5 °F 57.6 °F 81% 29.91 in 7.0 mi WNW 12.7 mph - N/A   Overcast
12:15 PM 63.5 °F 57.9 °F 82% 29.92 in 10.0 mi West 12.7 mph - N/A   Overcast
12:35 PM 64.4 °F 57.7 °F 79% 29.92 in 10.0 mi WSW 10.4 mph - N/A   Overcast
12:55 PM 65.5 °F 57.9 °F 77% 29.92 in 10.0 mi WSW 8.1 mph - N/A   Overcast
1:15 PM 66.6 °F 56.8 °F 71% 29.92 in 10.0 mi WSW 6.9 mph - N/A   Overcast
1:35 PM 67.3 °F 56.8 °F 69% 29.92 in 10.0 mi SW 10.4 mph - N/A   Overcast
1:55 PM 66.7 °F 57.7 °F 73% 29.92 in 10.0 mi SW 10.4 mph - N/A   Overcast
2:15 PM 66.7 °F 57.9 °F 73% 29.92 in 10.0 mi WSW 10.4 mph - N/A   Overcast
2:35 PM 67.8 °F 58.6 °F 72% 29.92 in 7.0 mi WSW 13.8 mph - N/A   Overcast
2:55 PM 67.8 °F 58.8 °F 73% 29.92 in 10.0 mi SW 13.8 mph - N/A   Overcast
3:15 PM 67.3 °F 58.8 °F 74% 29.92 in 10.0 mi WSW 11.5 mph - N/A   Overcast
3:35 PM 66.0 °F 58.3 °F 76% 29.93 in 7.0 mi NW 6.9 mph 20.7 mph N/A   Overcast
3:55 PM 63.1 °F 58.6 °F 85% 29.94 in 5.0 mi NNW 4.6 mph - 0.02 in   Overcast
4:15 PM 63.7 °F 59.4 °F 86% 29.94 in 7.0 mi NNW 6.9 mph - N/A   Overcast
4:35 PM 63.3 °F 58.1 °F 83% 29.94 in 4.0 mi NW 10.4 mph - 0.01 in   Haze
4:55 PM 63.3 °F 57.6 °F 81% 29.94 in 7.0 mi NNW 9.2 mph - 0.01 in   Overcast
5:15 PM 63.0 °F 56.7 °F 80% 29.94 in 7.0 mi NNW 6.9 mph - N/A   Overcast
5:35 PM 63.1 °F 56.3 °F 78% 29.94 in 10.0 mi NNW 8.1 mph - N/A   Overcast
5:55 PM 63.7 °F 55.9 °F 76% 29.94 in 10.0 mi NNW 10.4 mph 17.3 mph N/A   Overcast
6:15 PM 63.3 °F 55.0 °F 74% 29.93 in 10.0 mi NNW 9.2 mph - N/A   Overcast
6:35 PM 63.5 °F 54.7 °F 73% 29.94 in 10.0 mi North 8.1 mph - N/A   Overcast
6:55 PM 63.0 °F 54.0 °F 72% 29.94 in 10.0 mi NNW 11.5 mph 17.3 mph N/A   Overcast
7:15 PM 62.4 °F 53.4 °F 72% 29.95 in 10.0 mi North 9.2 mph - N/A   Overcast
7:35 PM 61.2 °F 52.5 °F 73% 29.95 in 10.0 mi North 11.5 mph - N/A   Overcast
7:55 PM 60.6 °F 51.4 °F 72% 29.96 in 7.0 mi NNW 9.2 mph - N/A   Overcast
8:15 PM 60.1 °F 50.9 °F 72% 29.96 in 10.0 mi NNW 6.9 mph - N/A   Overcast
8:35 PM 59.5 °F 50.7 °F 73% 29.97 in 10.0 mi NNW 9.2 mph - N/A   Overcast
8:55 PM 59.0 °F 50.0 °F 72% 29.97 in 10.0 mi NNW 9.2 mph - N/A   Overcast
9:15 PM 58.3 °F 49.1 °F 71% 29.97 in 10.0 mi NNW 9.2 mph - N/A   Overcast
9:35 PM 57.2 °F 48.2 °F 72% 29.98 in 10.0 mi NNW 8.1 mph - N/A   Mostly Cloudy
9:55 PM 56.3 °F 47.8 °F 73% 29.99 in 10.0 mi NNW 5.8 mph - N/A   Scattered Clouds
10:15 PM 55.9 °F 48.0 °F 75% 30.00 in 10.0 mi NNW 8.1 mph - N/A   Mostly Cloudy
10:35 PM 55.8 °F 47.5 °F 74% 30.01 in 10.0 mi North 4.6 mph - N/A   Overcast
10:55 PM 55.2 °F 46.8 °F 73% 30.01 in 10.0 mi North 6.9 mph - N/A   Overcast
11:15 PM 54.7 °F 46.4 °F 74% 30.02 in 10.0 mi North 5.8 mph - N/A   Overcast
11:35 PM 54.1 °F 46.2 °F 75% 30.02 in 7.0 mi North 4.6 mph - N/A   Overcast
11:55 PM 53.8 °F 45.9 °F 75% 30.02 in 10.0 mi NNW 5.8 mph - N/A   Overcast